Air Force Academy, CO

9:44 PM MST on November 18, 2019 (GMT -0700)
Usaf Academy

Weather History for KAFF - May, 2019

Change the Weather History Date:

Wednesday, May 15, 2019

  Actual Average Record
Temperature  
Mean Temperature 59 °F -  
Max Temperature 79 °F 65 °F 84 °F (2000)
Min Temperature 40 °F 38 °F 32 °F (2014)
Degree Days  
Heating Degree Days 6    
Growing Degree Days 9 (Base 50)    
Moisture  
Dew Point 26 °F    
Average Humidity 27    
Maximum Humidity 75    
Minimum Humidity 11    
Precipitation  
Precipitation 0.00 in - - ()
Sea Level Pressure  
Sea Level Pressure 29.86 in    
Wind  
Wind Speed 10 mph (WSW)    
Max Wind Speed 21 mph    
Max Gust Speed 29 mph    
Visibility 10 miles    
Events      
Averages and records for this station are not official NWS values.
T = Trace of Precipitation, MM = Missing Value Source: NWS Daily Summary

Daily Weather History Graph

Daily Weather History Graph

Search for Another Location

Airport or City:

Astronomy

May. 15, 2019 Rise Set
Actual Time 5:46 AM MDT 8:05 PM MDT
Civil Twilight 5:16 AM MDT 8:35 PM MDT
Nautical Twilight 4:39 AM MDT 9:12 PM MDT
Astronomical Twilight 3:59 AM MDT 9:53 PM MDT
Moon 4:40 PM MDT (5/15) 4:11 AM MDT (5/15)
Length of Visible Light 15h 18m
Length of Day
14h 18m
Waxing Gibbous, 88% of the Moon is Illuminated
May 15
Waxing Gibbous
May 18
Full
May 26
Last Quarter
Jun 3
New
Jun 10
First Quarter

Hourly Weather History & Observations

Time (MDT) Temp. Windchill Dew Point Humidity Pressure Visibility Wind Dir Wind Speed Gust Speed Precip Events Conditions
12:58 AM 48.7 °F - 33.8 °F 56% 29.97 in 10.0 mi North 9.2 mph - N/A   Mostly Cloudy
1:58 AM 47.1 °F - 33.6 °F 59% 29.95 in 10.0 mi NNW 6.9 mph - N/A   Clear
2:58 AM 43.3 °F 37.7 °F 33.8 °F 69% 29.93 in 10.0 mi North 10.4 mph - N/A   Clear
3:58 AM 42.6 °F 37.2 °F 33.1 °F 69% 29.92 in 10.0 mi North 9.2 mph - N/A   Clear
4:58 AM 40.6 °F 34.3 °F 33.3 °F 75% 29.93 in 10.0 mi North 10.4 mph - N/A   Clear
5:58 AM 41.9 °F 36.3 °F 33.3 °F 71% 29.94 in 10.0 mi North 9.2 mph - N/A   Clear
6:58 AM 47.8 °F - 34.2 °F 59% 29.94 in 10.0 mi NNE 8.1 mph - N/A   Clear
7:58 AM 62.6 °F - 35.6 °F 37% 30.16 in 10.0 mi North 3.5 mph - N/A   Clear
8:58 AM 69.4 °F - 30.0 °F 23% 29.88 in 10.0 mi Calm Calm - N/A   Partly Cloudy
9:58 AM 73.6 °F - 21.4 °F 14% 30.12 in 10.0 mi Calm Calm - N/A   Partly Cloudy
10:52 AM 73.4 °F - 15.8 °F 11% 29.88 in 10.0 mi WNW 16.1 mph - N/A   Partly Cloudy
10:58 AM 73.0 °F - 15.4 °F 11% 29.88 in 10.0 mi WNW 17.3 mph 21.9 mph N/A   Partly Cloudy
10:59 AM 73.4 °F - 15.8 °F 11% 29.88 in 10.0 mi West 16.1 mph 21.9 mph N/A   Partly Cloudy
11:58 AM 74.1 °F - 21.9 °F 14% 29.87 in 10.0 mi WSW 13.8 mph 18.4 mph N/A   Scattered Clouds
12:15 PM 73.4 °F - 15.8 °F 11% 29.88 in 10.0 mi SW 16.1 mph 28.8 mph N/A   Mostly Cloudy
12:58 PM 77.0 °F - 25.7 °F 15% 29.85 in 10.0 mi SSW 17.3 mph - N/A   Mostly Cloudy
1:41 PM 77.0 °F - 24.8 °F 14% 29.83 in 10.0 mi SW 16.1 mph 25.3 mph N/A   Scattered Clouds
1:58 PM 74.1 °F - 25.0 °F 16% 29.84 in 10.0 mi South 9.2 mph - N/A   Mostly Cloudy
2:58 PM 77.7 °F - 24.6 °F 14% 29.81 in 10.0 mi SE 10.4 mph 23.0 mph N/A   Clear
3:10 PM 78.8 °F - 23.0 °F 13% 29.81 in 10.0 mi South 16.1 mph 21.9 mph N/A   Clear
3:18 PM 77.0 °F - 24.8 °F 14% 29.81 in 10.0 mi WSW 12.7 mph 18.4 mph N/A   Clear
3:27 PM 77.0 °F - 24.8 °F 14% 29.81 in 10.0 mi SW 13.8 mph 18.4 mph N/A   Clear
3:46 PM 78.8 °F - 23.0 °F 13% 29.77 in 10.0 mi SW 20.7 mph 28.8 mph N/A   Partly Cloudy
3:56 PM 78.8 °F - 24.8 °F 14% 29.79 in 10.0 mi South 16.1 mph 28.8 mph N/A   Mostly Cloudy
3:58 PM 78.4 °F - 25.3 °F 14% 29.79 in 10.0 mi South 15.0 mph 20.7 mph N/A   Mostly Cloudy
4:00 PM 78.8 °F - 24.8 °F 14% 29.79 in 10.0 mi SSW 16.1 mph 20.7 mph N/A   Mostly Cloudy
4:58 PM 78.1 °F - 23.2 °F 13% 29.79 in 10.0 mi South 18.4 mph 28.8 mph N/A   Partly Cloudy
5:58 PM 77.0 °F - 22.3 °F 13% 29.78 in 10.0 mi SSW 13.8 mph - N/A   Mostly Cloudy
6:58 PM 74.5 °F - 25.3 °F 16% 29.75 in 10.0 mi South 9.2 mph - N/A   Mostly Cloudy
7:58 PM 68.4 °F - 25.7 °F 20% 29.99 in 10.0 mi SSE 6.9 mph - N/A   Clear
8:58 PM 63.9 °F - 30.2 °F 28% 29.73 in 10.0 mi NNW 6.9 mph - N/A   Mostly Cloudy
9:58 PM 63.3 °F - 28.8 °F 27% 29.74 in 10.0 mi Calm Calm - N/A   Mostly Cloudy
10:58 PM 60.1 °F - 30.9 °F 33% 29.74 in 10.0 mi North 3.5 mph - N/A   Mostly Cloudy
11:58 PM 57.4 °F - 32.0 °F 38% 29.74 in 10.0 mi North 6.9 mph - N/A   Clear